World > North America > United States > Missouri > Wakenda  

Wakenda, MO Hourly Weather Updates

Feedback E-mail the Weather

Quick WX

Wakenda, MO Weather Maps

°F °C°F °C
Wakenda Weather Map
UTC Time: 2/26/2024, 08:55
Your Time:

Wakenda, MO Regional Weather

Expires:202402260900;;716269
ASUS43 KEAX 260815
RWREAX

WEATHER ROUNDUP FOR EASTERN KANSAS AND NORTHWEST MISSOURI
NATIONAL WEATHER SERVICE KANSAS CITY/PLEASANT HILL MO
200 AM CST MON FEB 26 2024


MOZ001>008-011>017-020>025-030>033-038>040-044>046-053-054-260900-
...NORTHERN AND CENTRAL MISSOURI...
  
CITY           SKY/WX    TMP DP  RH WIND       PRES   REMARKS
ST. JOSEPH     CLEAR     34  25  69 CALM      29.79F                  
MOSBY          CLEAR     34  30  86 CALM      29.81F                  
HARRISONVILLE  PTCLDY    41  27  56 CALM      29.84F                  
WHITEMAN AFB   CLEAR     41  26  56 CALM      29.80F                  
CLINTON        PTCLDY    52  30  43 S7        29.82F                  
SEDALIA        CLEAR     55  23  28 SW8       29.83F                  
MARSHALL       CLEAR     39  32  75 S8        29.83R WCI  34          
CHILLICOTHE      N/A     38  30  73 CALM      29.81F                  
MOBERLY        CLEAR     50  27  40 SW7       29.82S                  
KIRKSVILLE     CLEAR     35  27  72 W3        29.82R                  

$$


SKY/WX - Weather  TMP - Temperature  DP - Dew Point  RH - Humidity
WIND - Wind Direction/Speed PRES - Barometric Pressure VSB - Visibility
WCI - Wind Chill Index E13G22 Wind - East Wind 13 mph/Gusts of 22 mph

Trending Headlines

Trending Entertainment Headlines

Wakenda Radar Loop

Use the map search tool if you want to place a location marker on the radar map...

Wakenda Quick Facts

National Two Day Weather Forecast


E-mail the Wakenda Weather Forecast

Voice your opinion or tell us about page issues...